TimeCDT,TemperatureF,Dew PointF,Humidity,Sea Level PressureIn,VisibilityMPH,Wind Direction,Wind SpeedMPH,Gust SpeedMPH,PrecipitationIn,Events,Conditions,WindDirDegrees,DateUTC
12:53 AM,79.0,72.0,79,29.96,10.0,Calm,Calm,-,N/A,,Clear,0,2013-08-03 05:53:00
1:53 AM,78.1,72.0,81,29.96,10.0,SSW,4.6,-,N/A,,Clear,200,2013-08-03 06:53:00
2:53 AM,78.1,71.1,79,29.95,10.0,South,6.9,-,N/A,,Clear,190,2013-08-03 07:53:00
3:53 AM,79.0,72.0,79,29.94,10.0,SSW,5.8,-,N/A,,Clear,200,2013-08-03 08:53:00
4:53 AM,79.0,72.0,79,29.93,10.0,SSW,9.2,-,N/A,,Clear,200,2013-08-03 09:53:00
5:53 AM,78.1,72.0,81,29.94,10.0,SSW,5.8,-,N/A,,Clear,210,2013-08-03 10:53:00
6:53 AM,78.1,73.0,84,29.95,10.0,SW,5.8,-,N/A,,Clear,220,2013-08-03 11:53:00
7:53 AM,81.0,73.0,77,29.98,10.0,WSW,6.9,-,N/A,,Clear,250,2013-08-03 12:53:00
8:53 AM,81.0,73.0,77,30.01,10.0,WSW,5.8,-,N/A,,Clear,250,2013-08-03 13:53:00
9:53 AM,82.0,73.9,76,30.05,10.0,WNW,6.9,-,N/A,,Clear,290,2013-08-03 14:53:00
10:53 AM,84.0,73.9,72,30.05,10.0,NW,12.7,18.4,N/A,,Clear,310,2013-08-03 15:53:00
11:53 AM,84.0,69.1,61,30.06,10.0,NNW,11.5,-,N/A,,Clear,340,2013-08-03 16:53:00
12:53 PM,84.0,70.0,63,30.05,10.0,NNE,6.9,-,N/A,,Clear,20,2013-08-03 17:53:00
1:53 PM,84.9,70.0,61,30.04,10.0,Calm,Calm,-,N/A,,Clear,0,2013-08-03 18:53:00
2:53 PM,87.1,69.1,55,30.02,10.0,West,6.9,-,N/A,,Clear,280,2013-08-03 19:53:00
3:53 PM,87.1,72.0,61,30.00,10.0,South,6.9,-,N/A,,Clear,180,2013-08-03 20:53:00
4:53 PM,88.0,72.0,59,30.00,10.0,Variable,3.5,-,N/A,,Clear,0,2013-08-03 21:53:00
5:53 PM,89.1,71.1,55,30.01,10.0,NNE,4.6,-,N/A,,Clear,20,2013-08-03 22:53:00
6:53 PM,88.0,72.0,59,30.01,10.0,East,6.9,-,N/A,,Clear,80,2013-08-03 23:53:00
7:53 PM,86.0,71.1,61,30.02,10.0,NE,5.8,-,N/A,,Clear,50,2013-08-04 00:53:00
8:53 PM,82.0,73.0,74,30.03,10.0,NE,6.9,-,N/A,,Clear,40,2013-08-04 01:53:00
9:53 PM,80.1,73.9,81,30.05,10.0,NE,6.9,-,N/A,,Clear,40,2013-08-04 02:53:00
10:53 PM,79.0,73.0,82,30.06,10.0,NE,4.6,-,N/A,,Clear,40,2013-08-04 03:53:00
11:53 PM,75.9,73.0,91,30.07,10.0,Calm,Calm,-,N/A,,Clear,0,2013-08-04 04:53:00